Time,TemperatureF,DewpointF,PressureIn,WindDirection,WindDirectionDegrees,WindSpeedMPH,WindSpeedGustMPH,Humidity,HourlyPrecipIn,Conditions,Clouds,dailyrainin,SoftwareType,DateUTC
2013-04-02 00:00:00,31.3,25.9,30.02,WNW,287,0.0,6.0,80,0.00,,---,0.03,VWS V14.01,2013-04-02 04:00:00,
2013-04-02 00:05:00,31.4,26.0,30.02,South,177,0.0,4.0,80,0.00,,---,0.00,VWS V14.01,2013-04-02 04:05:00,
2013-04-02 00:10:00,31.3,25.6,30.02,West,278,0.0,4.0,79,0.00,,---,0.00,VWS V14.01,2013-04-02 04:10:00,
2013-04-02 00:15:00,31.3,25.6,30.02,West,281,0.0,4.0,79,0.00,,---,0.00,VWS V14.01,2013-04-02 04:15:00,
2013-04-02 00:20:00,31.3,25.6,30.02,NW,320,0.0,4.0,79,0.00,,---,0.00,VWS V14.01,2013-04-02 04:20:00,
2013-04-02 00:25:00,31.3,25.2,30.02,West,278,0.0,5.0,78,0.00,,---,0.00,VWS V14.01,2013-04-02 04:25:00,
2013-04-02 00:30:00,31.4,25.4,30.02,West,281,1.0,1.0,78,0.00,,---,0.00,VWS V14.01,2013-04-02 04:30:00,
2013-04-02 00:35:00,31.3,25.2,30.02,WNW,293,0.0,3.0,78,0.00,,---,0.00,VWS V14.01,2013-04-02 04:35:00,
2013-04-02 00:40:00,31.3,25.2,30.02,North,355,1.0,5.0,78,0.00,,---,0.00,VWS V14.01,2013-04-02 04:40:00,
2013-04-02 00:45:00,31.2,25.1,30.02,WNW,283,1.0,6.0,78,0.00,,---,0.00,VWS V14.01,2013-04-02 04:45:00,
2013-04-02 00:50:00,31.1,25.0,30.02,NW,319,2.0,6.0,78,0.00,,---,0.00,VWS V14.01,2013-04-02 04:50:00,
2013-04-02 00:55:00,31.1,25.0,30.02,NE,49,3.0,6.0,78,0.00,,---,0.00,VWS V14.01,2013-04-02 04:55:00,
2013-04-02 01:00:00,31.0,24.6,30.02,WNW,289,1.0,1.0,77,0.00,,---,0.00,VWS V14.01,2013-04-02 05:00:00,
2013-04-02 01:05:00,30.9,24.5,30.02,WNW,288,0.0,4.0,77,0.00,,---,0.00,VWS V14.01,2013-04-02 05:05:00,
2013-04-02 01:10:00,30.8,24.5,30.02,West,276,3.0,4.0,77,0.00,,---,0.00,VWS V14.01,2013-04-02 05:10:00,
2013-04-02 01:15:00,30.8,24.5,30.03,WNW,297,0.0,4.0,77,0.00,,---,0.00,VWS V14.01,2013-04-02 05:15:00,
2013-04-02 01:20:00,30.6,24.3,30.03,NW,312,0.0,4.0,77,0.00,,---,0.00,VWS V14.01,2013-04-02 05:20:00,
2013-04-02 01:25:00,30.6,24.3,30.03,WNW,294,2.0,4.0,77,0.00,,---,0.00,VWS V14.01,2013-04-02 05:25:00,
2013-04-02 01:30:00,30.6,24.3,30.03,West,281,1.0,2.0,77,0.00,,---,0.00,VWS V14.01,2013-04-02 05:30:00,
2013-04-02 01:35:00,30.6,24.0,30.03,WNW,295,6.0,6.0,76,0.00,,---,0.00,VWS V14.01,2013-04-02 05:35:00,
2013-04-02 01:40:00,30.7,24.0,30.03,WNW,285,3.0,6.0,76,0.00,,---,0.00,VWS V14.01,2013-04-02 05:40:00,
2013-04-02 01:45:00,30.6,24.0,30.03,WNW,287,0.0,6.0,76,0.00,,---,0.00,VWS V14.01,2013-04-02 05:45:00,
2013-04-02 01:50:00,30.6,23.6,30.03,WNW,295,3.0,6.0,75,0.00,,---,0.00,VWS V14.01,2013-04-02 05:50:00,
2013-04-02 01:55:00,30.5,23.5,30.03,SW,224,0.0,6.0,75,0.00,,---,0.00,VWS V14.01,2013-04-02 05:55:00,
2013-04-02 02:00:00,30.4,23.8,30.03,WNW,290,0.0,3.0,76,0.00,,---,0.00,VWS V14.01,2013-04-02 06:00:00,
2013-04-02 02:05:00,30.3,23.3,30.03,NNE,20,0.0,4.0,75,0.00,,---,0.00,VWS V14.01,2013-04-02 06:05:00,
2013-04-02 02:10:00,30.2,23.6,30.03,NNE,16,3.0,4.0,76,0.00,,---,0.00,VWS V14.01,2013-04-02 06:10:00,
2013-04-02 02:15:00,30.1,23.5,30.03,West,276,1.0,4.0,76,0.00,,---,0.00,VWS V14.01,2013-04-02 06:15:00,
2013-04-02 02:21:00,29.9,23.6,30.03,WSW,252,1.0,4.0,77,0.00,,---,0.00,VWS V14.01,2013-04-02 06:21:00,
2013-04-02 02:26:00,29.7,23.4,30.03,SW,231,0.0,4.0,77,0.00,,---,0.00,VWS V14.01,2013-04-02 06:26:00,
2013-04-02 02:31:00,29.6,23.0,30.03,WNW,295,3.0,3.0,76,0.00,,---,0.00,VWS V14.01,2013-04-02 06:31:00,
2013-04-02 02:36:00,29.4,22.8,30.03,NW,313,1.0,5.0,76,0.00,,---,0.00,VWS V14.01,2013-04-02 06:36:00,
2013-04-02 02:41:00,29.2,22.3,30.03,West,274,1.0,5.0,75,0.00,,---,0.00,VWS V14.01,2013-04-02 06:41:00,
2013-04-02 02:46:00,29.2,21.6,30.03,NW,309,1.0,6.0,73,0.00,,---,0.00,VWS V14.01,2013-04-02 06:46:00,
2013-04-02 02:51:00,29.2,22.0,30.03,WSW,257,1.0,6.0,74,0.00,,---,0.00,VWS V14.01,2013-04-02 06:51:00,
2013-04-02 02:56:00,29.2,21.6,30.03,WNW,290,2.0,6.0,73,0.00,,---,0.00,VWS V14.01,2013-04-02 06:56:00,
2013-04-02 03:01:00,29.0,21.1,30.03,WNW,295,0.0,4.0,72,0.00,,---,0.00,VWS V14.01,2013-04-02 07:01:00,
2013-04-02 03:06:00,28.9,21.4,30.03,NW,307,1.0,5.0,73,0.00,,---,0.00,VWS V14.01,2013-04-02 07:06:00,
2013-04-02 03:11:00,28.9,21.0,30.03,West,260,0.0,5.0,72,0.00,,---,0.00,VWS V14.01,2013-04-02 07:11:00,
2013-04-02 03:16:00,28.8,20.9,30.03,SSE,154,0.0,6.0,72,0.00,,---,0.00,VWS V14.01,2013-04-02 07:16:00,
2013-04-02 03:21:00,28.8,20.9,30.03,NW,315,2.0,6.0,72,0.00,,---,0.00,VWS V14.01,2013-04-02 07:21:00,
2013-04-02 03:26:00,28.7,20.8,30.03,West,281,2.0,6.0,72,0.00,,---,0.00,VWS V14.01,2013-04-02 07:26:00,
2013-04-02 03:31:00,28.7,20.5,30.03,WNW,293,1.0,6.0,71,0.00,,---,0.00,VWS V14.01,2013-04-02 07:31:00,
2013-04-02 03:36:00,28.6,20.4,30.03,North,11,1.0,6.0,71,0.00,,---,0.00,VWS V14.01,2013-04-02 07:36:00,
2013-04-02 03:41:00,28.5,20.6,30.04,WNW,293,4.0,6.0,72,0.00,,---,0.00,VWS V14.01,2013-04-02 07:41:00,
2013-04-02 03:47:00,28.4,20.5,30.04,West,264,1.0,6.0,72,0.00,,---,0.00,VWS V14.01,2013-04-02 07:47:00,
2013-04-02 03:52:00,28.2,20.4,30.04,WSW,252,1.0,6.0,72,0.00,,---,0.00,VWS V14.01,2013-04-02 07:52:00,
2013-04-02 03:57:00,28.2,20.7,30.04,SW,217,0.0,6.0,73,0.00,,---,0.00,VWS V14.01,2013-04-02 07:57:00,
2013-04-02 04:02:00,27.9,20.4,30.04,NNW,342,2.0,3.0,73,0.00,,---,0.00,VWS V14.01,2013-04-02 08:02:00,
2013-04-02 04:07:00,28.0,20.5,30.04,West,270,1.0,6.0,73,0.00,,---,0.00,VWS V14.01,2013-04-02 08:07:00,
2013-04-02 04:12:00,27.8,20.3,30.04,SW,224,0.0,6.0,73,0.00,,---,0.00,VWS V14.01,2013-04-02 08:12:00,
2013-04-02 04:17:00,27.7,20.5,30.04,NW,304,3.0,6.0,74,0.00,,---,0.00,VWS V14.01,2013-04-02 08:17:00,
2013-04-02 04:22:00,27.7,20.8,30.05,West,279,0.0,6.0,75,0.00,,---,0.00,VWS V14.01,2013-04-02 08:22:00,
2013-04-02 04:27:00,27.6,20.4,30.05,WNW,282,3.0,6.0,74,0.00,,---,0.00,VWS V14.01,2013-04-02 08:27:00,
2013-04-02 04:32:00,27.8,20.6,30.05,NW,307,4.0,4.0,74,0.00,,---,0.00,VWS V14.01,2013-04-02 08:32:00,
2013-04-02 04:37:00,27.8,20.6,30.05,NW,320,0.0,4.0,74,0.00,,---,0.00,VWS V14.01,2013-04-02 08:37:00,
2013-04-02 04:42:00,27.9,20.7,30.05,WNW,299,1.0,4.0,74,0.00,,---,0.00,VWS V14.01,2013-04-02 08:42:00,
2013-04-02 04:47:00,28.0,20.8,30.05,WSW,245,2.0,6.0,74,0.00,,---,0.00,VWS V14.01,2013-04-02 08:47:00,
2013-04-02 04:52:00,28.1,20.6,30.05,WSW,251,4.0,6.0,73,0.00,,---,0.00,VWS V14.01,2013-04-02 08:52:00,
2013-04-02 04:57:00,28.0,20.5,30.06,SSW,197,2.0,6.0,73,0.00,,---,0.00,VWS V14.01,2013-04-02 08:57:00,
2013-04-02 05:02:00,28.0,20.5,30.06,WNW,299,1.0,5.0,73,0.00,,---,0.00,VWS V14.01,2013-04-02 09:02:00,
2013-04-02 05:07:00,27.9,20.4,30.06,WSW,257,1.0,5.0,73,0.00,,---,0.00,VWS V14.01,2013-04-02 09:07:00,
2013-04-02 05:12:00,27.9,20.4,30.06,SW,231,0.0,5.0,73,0.00,,---,0.00,VWS V14.01,2013-04-02 09:12:00,
2013-04-02 05:17:00,27.9,20.4,30.06,WNW,285,2.0,9.0,73,0.00,,---,0.00,VWS V14.01,2013-04-02 09:17:00,
2013-04-02 05:22:00,27.9,20.1,30.07,NW,318,2.0,9.0,72,0.00,,---,0.00,VWS V14.01,2013-04-02 09:22:00,
2013-04-02 05:28:00,27.9,20.1,30.07,SW,233,1.0,9.0,72,0.00,,---,0.00,VWS V14.01,2013-04-02 09:28:00,
2013-04-02 05:33:00,27.9,19.7,30.07,NW,313,0.0,6.0,71,0.00,,---,0.00,VWS V14.01,2013-04-02 09:33:00,
2013-04-02 05:38:00,27.9,19.7,30.07,NW,309,1.0,8.0,71,0.00,,---,0.00,VWS V14.01,2013-04-02 09:38:00,
2013-04-02 05:43:00,27.9,19.7,30.07,WSW,245,0.0,8.0,71,0.00,,---,0.00,VWS V14.01,2013-04-02 09:43:00,
2013-04-02 05:48:00,27.9,19.7,30.08,WNW,285,4.0,8.0,71,0.00,,---,0.00,VWS V14.01,2013-04-02 09:48:00,
2013-04-02 05:53:00,27.8,19.6,30.08,WNW,298,4.0,8.0,71,0.00,,---,0.00,VWS V14.01,2013-04-02 09:53:00,
2013-04-02 05:58:00,27.7,19.5,30.08,NW,318,2.0,8.0,71,0.00,,---,0.00,VWS V14.01,2013-04-02 09:58:00,
2013-04-02 06:03:00,27.6,19.8,30.09,West,263,3.0,6.0,72,0.00,,---,0.00,VWS V14.01,2013-04-02 10:03:00,
2013-04-02 06:08:00,27.5,19.7,30.08,WNW,298,3.0,6.0,72,0.00,,---,0.00,VWS V14.01,2013-04-02 10:08:00,
2013-04-02 06:13:00,27.4,19.6,30.09,NW,312,1.0,7.0,72,0.00,,---,0.00,VWS V14.01,2013-04-02 10:13:00,
2013-04-02 06:18:00,27.3,19.5,30.09,WSW,246,2.0,7.0,72,0.00,,---,0.00,VWS V14.01,2013-04-02 10:18:00,
2013-04-02 06:23:00,27.3,19.5,30.09,WNW,290,2.0,8.0,72,0.00,,---,0.00,VWS V14.01,2013-04-02 10:23:00,
2013-04-02 06:28:00,27.2,19.4,30.10,WSW,250,0.0,8.0,72,0.00,,---,0.00,VWS V14.01,2013-04-02 10:28:00,
2013-04-02 06:33:00,27.1,19.3,30.10,SSW,210,0.0,2.0,72,0.00,,---,0.00,VWS V14.01,2013-04-02 10:33:00,
2013-04-02 06:38:00,27.0,19.2,30.10,WSW,240,1.0,7.0,72,0.00,,---,0.00,VWS V14.01,2013-04-02 10:38:00,
2013-04-02 06:43:00,27.0,19.2,30.11,West,281,1.0,7.0,72,0.00,,---,0.00,VWS V14.01,2013-04-02 10:43:00,
2013-04-02 06:48:00,27.1,19.3,30.11,West,275,2.0,7.0,72,0.00,,---,0.00,VWS V14.01,2013-04-02 10:48:00,
2013-04-02 06:54:00,27.0,19.2,30.11,SW,217,1.0,7.0,72,0.00,,---,0.00,VWS V14.01,2013-04-02 10:54:00,
2013-04-02 06:59:00,27.0,19.2,30.11,West,278,2.0,7.0,72,0.00,,---,0.00,VWS V14.01,2013-04-02 10:59:00,
2013-04-02 07:04:00,27.0,19.2,30.11,SW,233,1.0,4.0,72,0.00,,---,0.00,VWS V14.01,2013-04-02 11:04:00,
2013-04-02 07:09:00,26.8,19.3,30.12,SW,226,0.0,4.0,73,0.00,,---,0.00,VWS V14.01,2013-04-02 11:09:00,
2013-04-02 07:14:00,26.7,19.2,30.12,NNW,334,0.0,4.0,73,0.00,,---,0.00,VWS V14.01,2013-04-02 11:14:00,
2013-04-02 07:19:00,26.5,19.0,30.13,WNW,293,1.0,4.0,73,0.00,,---,0.00,VWS V14.01,2013-04-02 11:19:00,
2013-04-02 07:24:00,26.3,19.1,30.13,SW,222,2.0,5.0,74,0.00,,---,0.00,VWS V14.01,2013-04-02 11:24:00,
2013-04-02 07:29:00,26.2,19.4,30.13,SSW,197,0.0,5.0,75,0.00,,---,0.00,VWS V14.01,2013-04-02 11:29:00,
2013-04-02 07:34:00,25.9,19.1,30.14,WSW,255,0.0,3.0,75,0.00,,---,0.00,VWS V14.01,2013-04-02 11:34:00,
2013-04-02 07:39:00,26.0,19.2,30.14,NW,304,2.0,3.0,75,0.00,,---,0.00,VWS V14.01,2013-04-02 11:39:00,
2013-04-02 07:44:00,26.1,19.6,30.14,WNW,293,0.0,4.0,76,0.00,,---,0.00,VWS V14.01,2013-04-02 11:44:00,
2013-04-02 07:49:00,26.1,19.3,30.14,WNW,286,2.0,7.0,75,0.00,,---,0.00,VWS V14.01,2013-04-02 11:49:00,
2013-04-02 07:54:00,26.2,19.4,30.14,West,269,2.0,7.0,75,0.00,,---,0.00,VWS V14.01,2013-04-02 11:54:00,
2013-04-02 07:59:00,26.4,19.6,30.15,WNW,297,2.0,7.0,75,0.00,,---,0.00,VWS V14.01,2013-04-02 11:59:00,
2013-04-02 08:04:00,26.7,19.9,30.15,WNW,289,1.0,5.0,75,0.00,,---,0.00,VWS V14.01,2013-04-02 12:04:00,
2013-04-02 08:09:00,27.1,19.9,30.15,West,279,1.0,5.0,74,0.00,,---,0.00,VWS V14.01,2013-04-02 12:09:00,
2013-04-02 08:14:00,27.5,20.0,30.16,WNW,297,3.0,5.0,73,0.00,,---,0.00,VWS V14.01,2013-04-02 12:14:00,
2013-04-02 08:19:00,27.4,19.9,30.16,WNW,301,4.0,6.0,73,0.00,,---,0.00,VWS V14.01,2013-04-02 12:19:00,
2013-04-02 08:24:00,27.3,19.8,30.16,West,278,1.0,9.0,73,0.00,,---,0.00,VWS V14.01,2013-04-02 12:24:00,
2013-04-02 08:29:00,27.3,19.8,30.16,WNW,295,3.0,9.0,73,0.00,,---,0.00,VWS V14.01,2013-04-02 12:29:00,
2013-04-02 08:34:00,27.3,19.8,30.16,WNW,293,2.0,9.0,73,0.00,,---,0.00,VWS V14.01,2013-04-02 12:34:00,
2013-04-02 08:39:00,27.4,19.9,30.16,NW,326,3.0,9.0,73,0.00,,---,0.00,VWS V14.01,2013-04-02 12:39:00,
2013-04-02 08:44:00,27.6,20.1,30.16,WNW,294,4.0,9.0,73,0.00,,---,0.00,VWS V14.01,2013-04-02 12:44:00,
2013-04-02 08:49:00,27.8,20.0,30.16,NW,325,1.0,9.0,72,0.00,,---,0.00,VWS V14.01,2013-04-02 12:49:00,
2013-04-02 08:54:00,28.5,20.6,30.16,West,277,1.0,9.0,72,0.00,,---,0.00,VWS V14.01,2013-04-02 12:54:00,
2013-04-02 08:59:00,28.2,18.3,30.16,NNW,339,5.0,9.0,66,0.00,,---,0.00,VWS V14.01,2013-04-02 12:59:00,
2013-04-02 09:04:00,28.1,18.2,30.17,NNW,329,3.0,12.0,66,0.00,,---,0.00,VWS V14.01,2013-04-02 13:04:00,
2013-04-02 09:09:00,28.0,18.1,30.17,NNW,348,7.0,12.0,66,0.00,,---,0.00,VWS V14.01,2013-04-02 13:09:00,
2013-04-02 09:14:00,28.2,18.3,30.17,NNE,29,5.0,12.0,66,0.00,,---,0.00,VWS V14.01,2013-04-02 13:14:00,
2013-04-02 09:19:00,28.4,18.1,30.17,NW,304,7.0,12.0,65,0.00,,---,0.00,VWS V14.01,2013-04-02 13:19:00,
2013-04-02 09:24:00,28.3,17.3,30.17,SSW,203,1.0,12.0,63,0.00,,---,0.00,VWS V14.01,2013-04-02 13:24:00,
2013-04-02 09:29:00,28.7,18.1,30.17,West,278,3.0,12.0,64,0.00,,---,0.00,VWS V14.01,2013-04-02 13:29:00,
2013-04-02 09:34:00,29.2,18.2,30.17,WNW,298,4.0,6.0,63,0.00,,---,0.00,VWS V14.01,2013-04-02 13:34:00,
2013-04-02 09:39:00,29.1,17.7,30.17,NNE,20,4.0,10.0,62,0.00,,---,0.00,VWS V14.01,2013-04-02 13:39:00,
2013-04-02 09:44:00,29.0,17.6,30.18,WNW,295,2.0,10.0,62,0.00,,---,0.00,VWS V14.01,2013-04-02 13:44:00,
2013-04-02 09:49:00,29.0,17.2,30.18,WSW,238,5.0,10.0,61,0.00,,---,0.00,VWS V14.01,2013-04-02 13:49:00,
2013-04-02 09:54:00,29.3,17.5,30.18,North,349,3.0,10.0,61,0.00,,---,0.00,VWS V14.01,2013-04-02 13:54:00,
2013-04-02 09:59:00,29.5,17.3,30.18,WNW,287,4.0,10.0,60,0.00,,---,0.00,VWS V14.01,2013-04-02 13:59:00,
2013-04-02 10:04:00,29.6,17.4,30.18,WNW,284,10.0,10.0,60,0.00,,---,0.00,VWS V14.01,2013-04-02 14:04:00,
2013-04-02 10:09:00,30.0,19.0,30.18,WNW,290,2.0,14.0,63,0.00,,---,0.00,VWS V14.01,2013-04-02 14:09:00,
2013-04-02 10:14:00,29.8,16.8,30.19,East,83,1.0,14.0,58,0.00,,---,0.00,VWS V14.01,2013-04-02 14:14:00,
2013-04-02 10:19:00,30.1,18.7,30.19,WNW,284,3.0,14.0,62,0.00,,---,0.00,VWS V14.01,2013-04-02 14:19:00,
2013-04-02 10:24:00,30.6,17.6,30.19,WSW,245,4.0,14.0,58,0.00,,---,0.00,VWS V14.01,2013-04-02 14:24:00,
2013-04-02 10:29:00,31.1,18.1,30.19,WSW,239,6.0,14.0,58,0.00,,---,0.00,VWS V14.01,2013-04-02 14:29:00,
2013-04-02 10:35:00,30.8,17.0,30.19,WNW,293,4.0,14.0,56,0.00,,---,0.00,VWS V14.01,2013-04-02 14:35:00,
2013-04-02 10:40:00,30.5,16.7,30.20,WNW,286,7.0,15.0,56,0.00,,---,0.00,VWS V14.01,2013-04-02 14:40:00,
2013-04-02 10:45:00,30.5,18.3,30.19,WSW,240,1.0,15.0,60,0.00,,---,0.00,VWS V14.01,2013-04-02 14:45:00,
2013-04-02 10:50:00,30.7,17.3,30.19,SSW,200,0.0,15.0,57,0.00,,---,0.00,VWS V14.01,2013-04-02 14:50:00,
2013-04-02 10:55:00,31.1,18.1,30.19,NNW,330,3.0,15.0,58,0.00,,---,0.00,VWS V14.01,2013-04-02 14:55:00,
2013-04-02 11:00:00,31.4,18.4,30.20,SW,214,1.0,2.0,58,0.00,,---,0.00,VWS V14.01,2013-04-02 15:00:00,
2013-04-02 11:05:00,31.8,19.9,30.20,SSW,201,4.0,8.0,61,0.00,,---,0.00,VWS V14.01,2013-04-02 15:05:00,
2013-04-02 11:10:00,32.3,18.4,30.20,SW,226,5.0,9.0,56,0.00,,---,0.00,VWS V14.01,2013-04-02 15:10:00,
2013-04-02 11:15:00,32.4,18.5,30.20,SW,225,5.0,9.0,56,0.00,,---,0.00,VWS V14.01,2013-04-02 15:15:00,
2013-04-02 11:20:00,31.9,17.2,30.20,West,273,6.0,12.0,54,0.00,,---,0.00,VWS V14.01,2013-04-02 15:20:00,
2013-04-02 11:25:00,32.0,17.7,30.20,West,276,4.0,13.0,55,0.00,,---,0.00,VWS V14.01,2013-04-02 15:25:00,
2013-04-02 11:30:00,32.7,15.7,30.20,West,263,5.0,10.0,49,0.00,,---,0.00,VWS V14.01,2013-04-02 15:30:00,
2013-04-02 11:35:00,32.9,15.9,30.20,WNW,290,6.0,10.0,49,0.00,,---,0.00,VWS V14.01,2013-04-02 15:35:00,
2013-04-02 11:40:00,33.0,15.9,30.20,WNW,300,7.0,11.0,49,0.00,,---,0.00,VWS V14.01,2013-04-02 15:40:00,
2013-04-02 11:45:00,33.1,14.6,30.20,WNW,290,9.0,12.0,46,0.00,,---,0.00,VWS V14.01,2013-04-02 15:45:00,
2013-04-02 11:50:00,33.0,15.5,30.20,NNW,346,7.0,13.0,48,0.00,,---,0.00,VWS V14.01,2013-04-02 15:50:00,
2013-04-02 11:55:00,33.0,15.0,30.20,NW,306,3.0,13.0,47,0.00,,---,0.00,VWS V14.01,2013-04-02 15:55:00,
2013-04-02 12:00:00,33.0,14.0,30.20,NNW,336,5.0,7.0,45,0.00,,---,0.00,VWS V14.01,2013-04-02 16:00:00,
2013-04-02 12:05:00,33.1,13.6,30.20,NW,304,13.0,13.0,44,0.00,,---,0.00,VWS V14.01,2013-04-02 16:05:00,
2013-04-02 12:10:00,33.1,15.1,30.20,West,267,9.0,15.0,47,0.00,,---,0.00,VWS V14.01,2013-04-02 16:10:00,
2013-04-02 12:15:00,33.6,16.0,30.20,WNW,295,2.0,15.0,48,0.00,,---,0.00,VWS V14.01,2013-04-02 16:15:00,
2013-04-02 17:00:00,41.2,15.6,30.15,WNW,292,4.0,16.0,35,0.00,,---,0.00,VWS V14.01,2013-04-02 21:00:00,
2013-04-02 17:48:00,41.2,15.6,30.15,WNW,292,4.0,16.0,35,0.00,,---,0.00,VWS V14.01,2013-04-02 21:48:00,
2013-04-02 17:54:00,40.6,14.4,30.15,WSW,253,7.0,10.0,34,0.00,,---,0.00,VWS V14.01,2013-04-02 21:54:00,
2013-04-02 17:59:00,40.5,13.0,30.15,WSW,256,5.0,12.0,32,0.00,,---,0.00,VWS V14.01,2013-04-02 21:59:00,
2013-04-02 18:04:00,40.4,12.9,30.15,WNW,286,3.0,9.0,32,0.00,,---,0.00,VWS V14.01,2013-04-02 22:04:00,
2013-04-02 18:09:00,40.8,14.6,30.16,SW,229,7.0,10.0,34,0.00,,---,0.00,VWS V14.01,2013-04-02 22:09:00,
2013-04-02 18:14:00,40.7,12.4,30.16,West,270,5.0,11.0,31,0.00,,---,0.00,VWS V14.01,2013-04-02 22:14:00,
2013-04-02 18:19:00,40.6,13.1,30.16,WNW,300,3.0,11.0,32,0.00,,---,0.00,VWS V14.01,2013-04-02 22:19:00,
2013-04-02 18:24:00,40.7,15.2,30.16,WNW,287,3.0,12.0,35,0.00,,---,0.00,VWS V14.01,2013-04-02 22:24:00,
2013-04-02 18:29:00,40.5,13.0,30.16,SW,222,5.0,12.0,32,0.00,,---,0.00,VWS V14.01,2013-04-02 22:29:00,
2013-04-02 18:34:00,40.4,13.6,30.16,WSW,255,1.0,10.0,33,0.00,,---,0.00,VWS V14.01,2013-04-02 22:34:00,
2013-04-02 18:39:00,40.4,13.6,30.16,WNW,302,6.0,10.0,33,0.00,,---,0.00,VWS V14.01,2013-04-02 22:39:00,
2013-04-02 18:44:00,40.3,14.2,30.16,North,8,1.0,10.0,34,0.00,,---,0.00,VWS V14.01,2013-04-02 22:44:00,
2013-04-02 18:49:00,40.2,12.7,30.16,SW,235,10.0,11.0,32,0.00,,---,0.00,VWS V14.01,2013-04-02 22:49:00,
2013-04-02 18:54:00,39.9,13.1,30.17,SSE,147,1.0,14.0,33,0.00,,---,0.00,VWS V14.01,2013-04-02 22:54:00,
2013-04-02 18:59:00,39.5,12.8,30.17,WNW,294,1.0,14.0,33,0.00,,---,0.00,VWS V14.01,2013-04-02 22:59:00,
2013-04-02 19:04:00,39.1,13.8,30.17,WNW,300,2.0,8.0,35,0.00,,---,0.00,VWS V14.01,2013-04-02 23:04:00,
2013-04-02 19:09:00,38.6,14.0,30.17,NNW,338,5.0,8.0,36,0.00,,---,0.00,VWS V14.01,2013-04-02 23:09:00,
2013-04-02 19:14:00,38.2,13.0,30.17,WNW,285,2.0,11.0,35,0.00,,---,0.00,VWS V14.01,2013-04-02 23:14:00,
2013-04-02 19:19:00,37.9,13.4,30.17,WNW,287,3.0,11.0,36,0.00,,---,0.00,VWS V14.01,2013-04-02 23:19:00,
2013-04-02 19:24:00,37.7,13.2,30.17,SW,224,0.0,11.0,36,0.00,,---,0.00,VWS V14.01,2013-04-02 23:24:00,
2013-04-02 19:29:00,37.4,13.5,30.17,SW,231,1.0,11.0,37,0.00,,---,0.00,VWS V14.01,2013-04-02 23:29:00,
2013-04-02 19:34:00,37.1,13.2,30.17,WSW,248,2.0,8.0,37,0.00,,---,0.00,VWS V14.01,2013-04-02 23:34:00,
2013-04-02 19:39:00,36.7,14.1,30.17,West,280,0.0,8.0,39,0.00,,---,0.00,VWS V14.01,2013-04-02 23:39:00,
2013-04-02 19:45:00,36.5,13.3,30.16,West,278,0.0,8.0,38,0.00,,---,0.00,VWS V14.01,2013-04-02 23:45:00,
2013-04-02 19:50:00,36.1,13.6,30.17,WNW,290,0.0,8.0,39,0.00,,---,0.00,VWS V14.01,2013-04-02 23:50:00,
2013-04-02 19:55:00,35.7,13.8,30.17,NW,308,0.0,8.0,40,0.00,,---,0.00,VWS V14.01,2013-04-02 23:55:00,
2013-04-02 20:00:00,35.4,14.6,30.17,SSW,207,0.0,0.0,42,0.00,,---,0.00,VWS V14.01,2013-04-03 00:00:00,
2013-04-02 20:05:00,35.1,13.8,30.17,West,260,3.0,5.0,41,0.00,,---,0.00,VWS V14.01,2013-04-03 00:05:00,
2013-04-02 20:10:00,34.9,14.1,30.17,WSW,252,1.0,5.0,42,0.00,,---,0.00,VWS V14.01,2013-04-03 00:10:00,
2013-04-02 20:15:00,34.9,13.6,30.18,NE,47,0.0,5.0,41,0.00,,---,0.00,VWS V14.01,2013-04-03 00:15:00,
2013-04-02 20:20:00,34.7,14.0,30.18,WNW,294,0.0,5.0,42,0.00,,---,0.00,VWS V14.01,2013-04-03 00:20:00,
2013-04-02 20:25:00,34.4,13.7,30.18,WNW,289,0.0,5.0,42,0.00,,---,0.00,VWS V14.01,2013-04-03 00:25:00,
2013-04-02 20:30:00,34.0,13.9,30.18,WNW,294,0.0,0.0,43,0.00,,---,0.00,VWS V14.01,2013-04-03 00:30:00,
2013-04-02 20:35:00,33.6,14.0,30.18,NW,308,0.0,1.0,44,0.00,,---,0.00,VWS V14.01,2013-04-03 00:35:00,
2013-04-02 20:40:00,33.4,13.9,30.18,North,1,1.0,2.0,44,0.00,,---,0.00,VWS V14.01,2013-04-03 00:40:00,
2013-04-02 20:46:00,33.2,14.2,30.18,NW,318,0.0,2.0,45,0.00,,---,0.00,VWS V14.01,2013-04-03 00:46:00,
2013-04-02 20:51:00,33.0,14.0,30.18,West,274,0.0,2.0,45,0.00,,---,0.00,VWS V14.01,2013-04-03 00:51:00,
2013-04-02 20:56:00,32.9,14.4,30.19,SW,226,0.0,2.0,46,0.00,,---,0.00,VWS V14.01,2013-04-03 00:56:00,
2013-04-02 21:01:00,32.5,14.0,30.18,WSW,249,0.0,2.0,46,0.00,,---,0.00,VWS V14.01,2013-04-03 01:01:00,
2013-04-02 21:07:00,32.5,14.0,30.19,WSW,248,0.0,2.0,46,0.00,,---,0.00,VWS V14.01,2013-04-03 01:07:00,
2013-04-02 21:12:00,32.2,13.8,30.19,WSW,255,0.0,2.0,46,0.00,,---,0.00,VWS V14.01,2013-04-03 01:12:00,
2013-04-02 21:17:00,32.1,13.7,30.19,West,264,0.0,2.0,46,0.00,,---,0.00,VWS V14.01,2013-04-03 01:17:00,
2013-04-02 21:22:00,32.1,14.2,30.19,NNW,338,0.0,2.0,47,0.00,,---,0.00,VWS V14.01,2013-04-03 01:22:00,
2013-04-02 21:27:00,31.6,14.2,30.19,NNW,339,0.0,2.0,48,0.00,,---,0.00,VWS V14.01,2013-04-03 01:27:00,
2013-04-02 21:32:00,31.3,14.4,30.19,NNW,338,0.0,1.0,49,0.00,,---,0.00,VWS V14.01,2013-04-03 01:32:00,
2013-04-02 21:37:00,31.1,13.7,30.20,NNW,334,0.0,1.0,48,0.00,,---,0.00,VWS V14.01,2013-04-03 01:37:00,
2013-04-02 21:42:00,31.3,13.9,30.20,WNW,298,0.0,2.0,48,0.00,,---,0.00,VWS V14.01,2013-04-03 01:42:00,
2013-04-02 21:47:00,31.6,14.2,30.20,NW,312,1.0,3.0,48,0.00,,---,0.00,VWS V14.01,2013-04-03 01:47:00,
2013-04-02 21:52:00,31.6,14.2,30.20,NW,319,0.0,3.0,48,0.00,,---,0.00,VWS V14.01,2013-04-03 01:52:00,
2013-04-02 21:57:00,31.4,13.5,30.20,NW,324,0.0,3.0,47,0.00,,---,0.00,VWS V14.01,2013-04-03 01:57:00,
2013-04-02 22:02:00,31.3,14.4,30.20,West,278,0.0,1.0,49,0.00,,---,0.00,VWS V14.01,2013-04-03 02:02:00,
2013-04-02 22:07:00,31.1,13.7,30.20,WNW,299,0.0,1.0,48,0.00,,---,0.00,VWS V14.01,2013-04-03 02:07:00,
2013-04-02 22:12:00,31.0,13.6,30.21,North,354,0.0,1.0,48,0.00,,---,0.00,VWS V14.01,2013-04-03 02:12:00,
2013-04-02 22:18:00,31.1,13.7,30.21,WNW,291,1.0,2.0,48,0.00,,---,0.00,VWS V14.01,2013-04-03 02:18:00,
2013-04-02 22:23:00,31.2,13.8,30.21,WNW,293,0.0,2.0,48,0.00,,---,0.00,VWS V14.01,2013-04-03 02:23:00,
2013-04-02 22:28:00,30.9,13.5,30.21,NW,323,0.0,2.0,48,0.00,,---,0.00,VWS V14.01,2013-04-03 02:28:00,
2013-04-02 22:33:00,30.8,13.9,30.21,NW,306,0.0,1.0,49,0.00,,---,0.00,VWS V14.01,2013-04-03 02:33:00,
2013-04-02 22:38:00,30.6,13.7,30.21,NW,307,0.0,1.0,49,0.00,,---,0.00,VWS V14.01,2013-04-03 02:38:00,
2013-04-02 22:43:00,30.3,13.9,30.21,NNW,342,0.0,1.0,50,0.00,,---,0.00,VWS V14.01,2013-04-03 02:43:00,
2013-04-02 22:48:00,30.1,13.7,30.22,NW,311,0.0,1.0,50,0.00,,---,0.00,VWS V14.01,2013-04-03 02:48:00,
2013-04-02 22:53:00,30.1,14.2,30.21,WSW,248,0.0,1.0,51,0.00,,---,0.00,VWS V14.01,2013-04-03 02:53:00,
2013-04-02 22:58:00,30.1,14.2,30.22,WSW,248,0.0,2.0,51,0.00,,---,0.00,VWS V14.01,2013-04-03 02:58:00,
2013-04-02 23:03:00,29.8,13.9,30.21,WSW,257,0.0,2.0,51,0.00,,---,0.00,VWS V14.01,2013-04-03 03:03:00,
2013-04-02 23:09:00,30.0,14.1,30.22,West,259,0.0,2.0,51,0.00,,---,0.00,VWS V14.01,2013-04-03 03:09:00,
2013-04-02 23:14:00,29.7,13.8,30.22,West,259,0.0,2.0,51,0.00,,---,0.00,VWS V14.01,2013-04-03 03:14:00,
2013-04-02 23:19:00,29.4,13.5,30.21,West,259,0.0,2.0,51,0.00,,---,0.00,VWS V14.01,2013-04-03 03:19:00,
2013-04-02 23:24:00,29.4,14.0,30.22,West,265,0.0,2.0,52,0.00,,---,0.00,VWS V14.01,2013-04-03 03:24:00,
2013-04-02 23:29:00,29.6,14.1,30.22,West,274,0.0,2.0,52,0.00,,---,0.00,VWS V14.01,2013-04-03 03:29:00,
2013-04-02 23:34:00,29.5,13.6,30.22,West,274,0.0,1.0,51,0.00,,---,0.00,VWS V14.01,2013-04-03 03:34:00,
2013-04-02 23:39:00,29.6,13.7,30.22,WSW,255,0.0,2.0,51,0.00,,---,0.00,VWS V14.01,2013-04-03 03:39:00,
2013-04-02 23:44:00,29.6,14.1,30.22,SE,145,0.0,2.0,52,0.00,,---,0.00,VWS V14.01,2013-04-03 03:44:00,
2013-04-02 23:49:00,29.6,13.7,30.22,East,89,0.0,2.0,51,0.00,,---,0.00,VWS V14.01,2013-04-03 03:49:00,
2013-04-02 23:54:00,29.9,14.0,30.22,WSW,248,1.0,2.0,51,0.00,,---,0.00,VWS V14.01,2013-04-03 03:54:00,
2013-04-02 23:59:00,29.9,13.5,30.22,SW,218,0.0,3.0,50,0.00,,---,0.00,VWS V14.01,2013-04-03 03:59:00,